Weather History for Akron, CO

Change the Weather History Date:

Sunday, June 16, 2013

  Actual Average Record
Temperature  
Mean Temperature 73 °F 68 °F  
Max Temperature 91 °F 82 °F 96 °F (1940)
Min Temperature 54 °F 54 °F 35 °F (1945)
Degree Days  
Heating Degree Days 0    
Month to date heating degree days 25  
Cooling Degree Days 8    
Month to date cooling degree days 76  
Growing Degree Days 21 (Base 50)    
Moisture  
Dew Point 46 °F    
Average Humidity 52    
Maximum Humidity 86    
Minimum Humidity 18    
Precipitation  
Precipitation 0.01 in 0.08 in 1.86 in (1963)
Month to date precipitation 0.34 1.49  
Year to date precipitation 4.23 7.67  
Sea Level Pressure  
Sea Level Pressure 29.94 in    
Wind  
Wind Speed 13 mph (SSW)    
Max Wind Speed 29 mph    
Max Gust Speed 43 mph    
Visibility 10 miles    
Events Rain , Thunderstorm    
T = Trace of Precipitation, MM = Missing Value Source: NWS Daily Summary

Daily Weather History Graph

Daily Weather History Graph

Search for Another Location

Airport:

Trip Planner

Search our weather history database for the weather conditions in past years. The results will help you decide how hot, cold, wet, or windy it might be!

Date:

Astronomy

Jun. 16, 2013 Rise Set
Actual Time 5:22 AM MDT 8:24 PM MDT
Civil Twilight 4:49 AM MDT 8:57 PM MDT
Nautical Twilight 4:08 AM MDT 9:39 PM MDT
Astronomical Twilight 3:19 AM MDT 10:28 PM MDT
Moon 1:01 PM MDT (6/16) 12:29 AM MDT (6/16)
Length of Visible Light 16h 07m
Length of Day
15h 01m
Waxing Crescent, 50% of the Moon is Illuminated
Jun 16
Waxing Crescent
Jun 23
Full
Jun 29
Last Quarter
Jul 8
New
Jul 15
First Quarter

Hourly Weather History & Observations

Time (MDT) Temp. Dew Point Humidity Pressure Visibility Wind Dir Wind Speed Gust Speed Precip Events Conditions
12:53 AM 62.1 °F 54.0 °F 75% 29.94 in 10.0 mi SSE 9.2 mph - N/A   Clear
1:53 AM 60.1 °F 52.0 °F 75% 29.91 in 10.0 mi SE 11.5 mph - N/A   Clear
2:53 AM 57.9 °F 52.0 °F 81% 29.95 in 10.0 mi SE 6.9 mph - N/A   Clear
3:53 AM 55.0 °F 52.0 °F 89% 29.95 in 10.0 mi SSE 8.1 mph - N/A   Clear
4:53 AM 57.0 °F 50.0 °F 77% 29.95 in 10.0 mi SSE 10.4 mph - N/A   Clear
5:53 AM 55.0 °F 50.0 °F 83% 29.98 in 10.0 mi SSE 10.4 mph - N/A   Clear
6:53 AM 59.0 °F 52.0 °F 78% 29.98 in 10.0 mi South 9.2 mph - N/A   Clear
7:53 AM 66.9 °F 53.1 °F 61% 29.97 in 10.0 mi SSW 13.8 mph 24.2 mph N/A   Clear
8:53 AM 72.0 °F 52.0 °F 49% 29.95 in 10.0 mi SSW 17.3 mph 27.6 mph N/A   Clear
9:53 AM 77.0 °F 52.0 °F 42% 29.92 in 10.0 mi SSW 18.4 mph 27.6 mph N/A   Clear
10:53 AM 82.0 °F 48.9 °F 31% 29.90 in 10.0 mi WSW 19.6 mph 28.8 mph N/A   Clear
11:53 AM 84.9 °F 44.1 °F 24% 29.88 in 10.0 mi SW 12.7 mph 21.9 mph N/A   Clear
12:53 PM 87.1 °F 42.1 °F 21% 29.85 in 10.0 mi SW 15.0 mph 26.5 mph N/A   Clear
1:53 PM 87.1 °F 39.0 °F 18% 29.84 in 10.0 mi SSW 13.8 mph - N/A   Partly Cloudy
2:45 PM 84.2 °F 37.4 °F 19% 30.02 in 10.0 mi WSW 13.8 mph 18.4 mph N/A Thunderstorm Scattered Clouds
2:53 PM 84.0 °F 37.0 °F 19% 29.86 in 10.0 mi WNW 11.5 mph 28.8 mph 0.00 in Rain , Thunderstorm Light Rain
3:05 PM 80.6 °F 35.6 °F 20% 30.03 in 10.0 mi SSW 27.6 mph 40.3 mph 0.00 in   Scattered Clouds
3:12 PM 78.8 °F 39.2 °F 24% 30.04 in 10.0 mi SSW 21.9 mph 40.3 mph 0.00 in   Partly Cloudy
3:53 PM 77.0 °F 37.9 °F 24% 29.95 in 8.0 mi NNE 17.3 mph 32.2 mph 0.00 in Rain Light Rain
4:20 PM 78.8 °F 39.2 °F 24% 30.05 in 10.0 mi SW 15.0 mph 26.5 mph 0.01 in   Scattered Clouds
4:53 PM 80.1 °F 43.0 °F 27% 29.90 in 10.0 mi SSW 24.2 mph 42.6 mph 0.01 in   Partly Cloudy
5:53 PM 81.0 °F 39.0 °F 22% 29.89 in 10.0 mi SW 13.8 mph 27.6 mph N/A   Clear
6:53 PM 80.1 °F 39.9 °F 24% 29.85 in 10.0 mi SW 12.7 mph - N/A   Clear
7:53 PM 77.0 °F 43.0 °F 30% 29.88 in 10.0 mi South 11.5 mph - N/A   Clear
8:53 PM 72.0 °F 44.1 °F 37% 29.90 in 10.0 mi SSW 8.1 mph - N/A   Clear
9:53 PM 62.1 °F 51.1 °F 67% 29.97 in 10.0 mi ESE 11.5 mph - N/A   Clear
10:13 PM 62.6 °F 51.8 °F 68% 30.11 in 10.0 mi South 16.1 mph 24.2 mph N/A   Clear
10:53 PM 61.0 °F 50.0 °F 67% 29.94 in 10.0 mi South 19.6 mph - N/A   Clear
11:53 PM 60.1 °F 50.0 °F 69% 29.94 in 10.0 mi South 13.8 mph 24.2 mph N/A   Clear